Defiance, OH

8:24 PM EST on November 18, 2019 (GMT -0500)
Defiance Memorial

Weather History for KDFI - September, 2019

Change the Weather History Date:

Saturday, September 14, 2019

  Actual Average Record
Temperature  
Mean Temperature 67 °F -  
Max Temperature 78 °F 77 °F 100 °F (1939)
Min Temperature 57 °F 53 °F 34 °F (1964)
Cooling Degree Days 2    
Growing Degree Days 17 (Base 50)    
Moisture  
Dew Point 57 °F    
Average Humidity 71    
Maximum Humidity 90    
Minimum Humidity 46    
Precipitation  
Precipitation 0.00 in - - ()
Sea Level Pressure  
Sea Level Pressure 30.19 in    
Wind  
Wind Speed 5 mph (WSW)    
Max Wind Speed 10 mph    
Max Gust Speed 17 mph    
Visibility 10 miles    
Events      
Averages and records for this station are not official NWS values.
T = Trace of Precipitation, MM = Missing Value Source: NWS Daily Summary

Daily Weather History Graph

Daily Weather History Graph

Search for Another Location

Airport or City:

Astronomy

Sep. 14, 2019 Rise Set
Actual Time 7:16 AM EDT 7:49 PM EDT
Civil Twilight 6:49 AM EDT 8:16 PM EDT
Nautical Twilight 6:16 AM EDT 8:49 PM EDT
Astronomical Twilight 5:42 AM EDT 9:23 PM EDT
Moon 8:29 PM EDT (9/14) 7:29 AM EDT (9/14)
Length of Visible Light 13h 27m
Length of Day
12h 32m
Full, 100% of the Moon is Illuminated
Sep 14
Full
Sep 21
Last Quarter
Sep 28
New
Oct 5
First Quarter
Oct 13
Full

Hourly Weather History & Observations

Time (EDT) Temp. Dew Point Humidity Pressure Visibility Wind Dir Wind Speed Gust Speed Precip Events Conditions
12:53 AM 66.0 °F 59.0 °F 78% 30.12 in 10.0 mi Variable 4.6 mph - N/A   Clear
1:53 AM 64.9 °F 57.9 °F 78% 30.13 in 10.0 mi Variable 4.6 mph - N/A   Clear
2:53 AM 63.0 °F 57.0 °F 81% 30.14 in 10.0 mi Variable 3.5 mph - N/A   Clear
3:53 AM 61.0 °F 55.9 °F 83% 30.15 in 10.0 mi SW 3.5 mph - N/A   Clear
4:53 AM 59.0 °F 55.9 °F 90% 30.17 in 10.0 mi SW 3.5 mph - N/A   Clear
5:53 AM 57.9 °F 55.0 °F 90% 30.17 in 10.0 mi SW 4.6 mph - N/A   Clear
6:53 AM 57.9 °F 55.0 °F 90% 30.19 in 10.0 mi SSW 3.5 mph - N/A   Clear
7:53 AM 59.0 °F 55.0 °F 87% 30.21 in 10.0 mi SW 4.6 mph - N/A   Clear
8:53 AM 62.1 °F 57.0 °F 84% 30.23 in 10.0 mi Variable 6.9 mph - N/A   Clear
9:53 AM 66.0 °F 57.9 °F 75% 30.24 in 10.0 mi WSW 4.6 mph - N/A   Clear
10:53 AM 68.0 °F 57.9 °F 70% 30.25 in 10.0 mi WSW 6.9 mph - N/A   Partly Cloudy
11:40 AM 70.0 °F 57.0 °F 63% 30.24 in 10.0 mi West 6.9 mph - N/A   Mostly Cloudy
11:48 AM 71.6 °F 57.2 °F 60% 30.24 in 10.0 mi West 8.1 mph - N/A   Mostly Cloudy
11:53 AM 71.1 °F 57.0 °F 61% 30.24 in 10.0 mi Variable 6.9 mph - N/A   Mostly Cloudy
12:53 PM 72.0 °F 57.0 °F 59% 30.23 in 10.0 mi WSW 10.4 mph 17.3 mph N/A   Partly Cloudy
1:53 PM 73.9 °F 57.0 °F 55% 30.22 in 10.0 mi Variable 4.6 mph 16.1 mph N/A   Clear
2:53 PM 77.0 °F 57.0 °F 50% 30.21 in 10.0 mi WNW 9.2 mph - N/A   Clear
3:53 PM 75.9 °F 54.0 °F 46% 30.19 in 10.0 mi Variable 4.6 mph - N/A   Clear
4:53 PM 77.0 °F 55.0 °F 47% 30.18 in 10.0 mi West 4.6 mph - N/A   Clear
5:53 PM 77.0 °F 55.9 °F 48% 30.18 in 10.0 mi Variable 3.5 mph - N/A   Clear
6:53 PM 75.9 °F 57.0 °F 52% 30.17 in 10.0 mi WSW 3.5 mph - N/A   Clear
7:53 PM 71.1 °F 61.0 °F 70% 30.18 in 10.0 mi Calm Calm - N/A   Clear
8:53 PM 66.9 °F 60.1 °F 79% 30.18 in 10.0 mi South 3.5 mph - N/A   Clear
9:53 PM 64.9 °F 60.1 °F 84% 30.19 in 10.0 mi Calm Calm - N/A   Clear
10:53 PM 64.9 °F 60.1 °F 84% 30.20 in 10.0 mi Calm Calm - N/A   Clear
11:53 PM 64.0 °F 59.0 °F 84% 30.20 in 10.0 mi Calm Calm - N/A   Clear